Location: Newark
(23.3970°S, 47.6010°W)
Time: 12:30:34
(UTC+00:00)

Tiros 1 despin weight - Visible Passes

Search period start: 21 February 2020 00:00
Search period end: 02 March 2020 00:00
Orbit: 594 x 642 km, 48.2° (Epoch: 21 February)

Date Brightness Start Highest point End Pass type
(mag) Time Alt. Az. Time Alt. Az. Time Alt. Az.
21 Feb ? 22:22:39 10° SSW 22:26:59 35° SE 22:30:26 14° ENE visible
22 Feb ? 00:04:35 10° WSW 00:07:31 23° WNW 00:07:31 23° WNW visible
22 Feb ? 22:38:53 10° SW 22:43:36 81° SE 22:46:43 21° NE visible
23 Feb ? 22:55:37 10° WSW 23:00:03 41° NW 23:03:06 18° NNE visible
24 Feb ? 23:13:17 10° W 23:16:22 17° NW 23:19:25 10° NNW visible
26 Feb ? 22:03:59 10° WSW 22:08:02 29° NW 22:12:02 10° N visible
27 Feb ? 22:22:36 10° WNW 22:24:19 12° NW 22:26:02 10° NNW visible
